Theta_e
311 312 312 312 313 312 313 313 313 313 314 315 316 317 317 318 319 321 324 325 326 326 326 326 327 328 327 325 324 321 319 320 321 317 310 306 301 299 300 300 299 300 302 301 300 299 299 298 297 298 297 296 295 295 295 294 294 293 293 293 293 293 292 292 291 292 292 291 291 291 291 291 291 291 291 291 291 291 291 291 291 290 290 289 289
311 311 311 312 312 312 313 313 313 313 314 315 317 318 320 321 322 323 325 326 326 326 326 326 327 328 327 326 324 321 319 320 321 316 310 304 300 299 299 299 299 301 302 301 299 298 298 297 297 297 297 296 295 295 294 294 294 294 294 293 293 292 292 291 291 291 292 291 291 291 291 291 291 291 291 291 291 291 291 291 290 290 289 289 289
310 311 311 311 312 312 312 312 313 313 314 316 318 320 321 323 324 325 326 327 327 327 327 326 327 328 327 325 324 321 319 319 318 314 308 302 299 299 299 298 299 301 301 300 298 297 297 297 297 297 296 295 295 294 294 294 294 294 293 293 293 292 292 291 291 291 291 291 291 291 291 291 291 291 291 291 291 291 290 290 290 289 289 289 289
310 311 311 311 311 311 312 312 312 313 314 316 319 322 323 324 324 326 327 327 328 327 326 326 328 328 326 325 323 320 319 319 316 311 306 301 299 299 298 297 299 300 299 298 297 296 296 297 297 296 295 295 295 294 294 294 294 294 293 293 292 292 292 291 291 291 291 291 291 290 291 291 291 291 291 291 291 290 290 290 290 289 289 289 289
311 312 312 312 312 312 312 313 313 313 314 316 319 322 324 324 324 326 328 328 328 327 325 326 328 327 325 324 323 320 320 318 314 308 303 299 298 298 297 297 298 298 298 297 296 296 296 296 296 295 295 294 295 294 294 294 294 294 294 293 292 292 291 291 291 291 291 291 291 290 290 290 290 290 290 291 291 290 290 290 290 289 289 289 289
313 313 313 313 313 313 313 313 314 315 316 318 321 323 324 325 325 326 327 328 328 328 326 324 324 325 325 323 322 320 319 317 312 306 301 298 298 297 296 297 298 298 297 296 295 295 296 296 295 294 295 295 295 295 294 294 294 294 293 293 292 292 291 291 291 291 290 290 290 290 290 290 290 290 290 290 290 290 290 290 290 289 289 288 288
313 313 313 313 313 312 312 313 313 314 316 319 322 323 324 325 325 325 326 328 328 328 327 323 321 323 324 322 321 321 319 315 310 304 299 297 297 297 296 297 297 297 296 295 295 295 295 295 294 294 295 295 295 295 294 295 295 294 293 292 292 292 291 291 291 290 290 290 290 290 290 290 290 289 289 289 289 289 290 290 290 289 289 288 288
312 312 312 312 312 312 312 312 312 312 314 316 318 321 323 324 325 325 326 327 326 327 327 323 322 324 324 322 321 320 319 315 308 302 298 297 297 296 296 297 297 296 295 295 295 295 295 295 294 295 295 295 295 295 295 295 295 294 294 293 292 292 291 291 290 290 290 290 290 290 290 290 289 289 289 289 289 289 289 289 289 289 289 288 288
311 312 312 312 312 312 311 311 312 312 312 313 314 316 318 320 322 323 324 325 325 326 326 323 322 323 323 321 321 321 319 315 307 300 298 297 296 296 296 297 297 296 295 295 294 294 294 294 294 294 295 295 295 295 295 295 295 294 294 293 292 292 291 290 290 290 290 290 290 290 289 289 289 288 288 288 288 288 288 288 288 288 288 288 288
312 312 312 312 312 312 311 311 311 311 311 312 312 313 313 315 316 317 320 322 322 324 326 324 323 323 321 320 321 320 319 314 305 299 298 297 296 296 297 297 296 295 295 294 294 294 294 294 294 294 294 295 295 296 296 296 295 294 293 293 292 292 291 290 290 290 290 289 289 289 289 289 288 288 288 288 288 288 287 287 287 287 288 288 288
312 312 312 312 311 311 311 311 310 310 310 310 311 311 311 312 312 313 317 320 321 323 324 325 324 323 321 320 320 320 318 312 303 298 297 296 296 296 296 297 295 294 294 294 294 294 294 294 294 294 295 295 296 296 296 296 295 294 294 293 292 291 290 290 289 289 289 289 289 289 288 288 288 287 287 287 287 287 287 287 287 287 287 287 287
312 312 312 312 311 311 310 309 309 309 309 310 310 309 310 312 313 315 318 320 321 323 323 323 323 322 320 320 319 318 316 309 301 297 297 296 295 295 295 296 295 294 294 294 294 294 294 294 294 295 295 296 297 297 297 297 296 295 294 293 291 290 290 290 289 289 289 289 289 288 288 288 287 287 287 287 286 286 286 286 286 286 286 286 286
313 312 312 312 312 311 310 309 309 308 309 313 315 313 312 315 317 318 319 320 321 321 322 322 322 321 320 320 318 316 312 305 299 297 296 295 295 295 294 294 294 294 294 294 294 294 294 294 294 295 296 297 298 298 298 297 296 295 294 293 291 290 289 289 289 289 289 288 288 288 287 287 287 287 286 286 286 286 286 286 286 286 286 286 286
313 312 312 312 312 312 310 309 309 308 309 314 318 317 317 319 320 319 320 320 320 320 320 321 320 320 319 319 318 316 310 303 298 297 296 295 295 294 294 294 293 293 293 294 294 294 294 294 295 296 297 298 299 299 298 297 296 296 295 293 291 290 289 289 289 288 288 288 288 288 287 287 287 286 286 286 286 286 286 286 286 286 286 286 286
313 312 312 312 312 312 311 310 309 309 311 314 316 319 319 319 318 317 318 319 320 319 319 320 319 319 319 318 318 316 310 302 298 296 295 295 294 294 294 293 293 293 293 293 293 293 293 294 295 297 298 299 299 299 298 297 297 296 295 293 291 289 289 289 288 288 288 288 287 287 287 287 286 286 286 286 286 286 286 286 286 286 286 286 285
312 312 312 312 312 312 312 311 309 309 312 314 316 317 317 317 317 318 318 319 320 319 319 319 319 318 318 317 317 315 309 301 297 296 295 295 294 294 293 293 293 293 293 293 293 293 293 294 296 298 299 299 299 299 298 298 297 296 294 292 290 289 288 288 288 288 288 287 287 287 287 286 286 286 286 285 285 286 286 286 286 286 286 285 285
312 312 312 312 312 312 312 312 311 309 311 314 317 316 316 315 316 317 318 319 319 318 318 317 317 317 317 317 317 314 307 300 297 296 295 294 294 294 293 293 293 293 292 293 293 293 293 295 297 298 299 300 299 299 298 298 298 296 294 291 290 289 288 288 288 288 287 287 287 287 286 286 286 286 285 285 285 285 286 286 286 285 285 285 285
311 312 312 312 312 312 311 311 312 310 310 312 314 315 315 315 316 316 317 317 317 317 316 316 316 316 315 316 315 312 305 299 296 295 295 294 294 293 293 293 293 292 292 292 293 293 293 295 297 299 300 300 299 299 299 299 298 296 293 291 290 288 288 288 288 287 287 287 287 287 286 286 286 285 285 285 285 285 285 285 285 285 285 285 285
311 311 311 312 311 311 311 311 311 311 311 311 312 312 312 314 315 316 316 316 316 316 315 315 315 315 315 314 312 308 303 298 296 295 294 294 294 293 293 292 292 292 292 292 292 292 293 296 298 300 300 300 299 299 299 299 298 296 293 291 289 288 288 288 288 288 287 287 287 286 286 286 285 285 285 285 285 285 285 285 285 285 285 285 284
310 310 311 311 311 311 311 311 310 311 311 311 311 312 312 312 313 313 313 314 314 314 314 313 313 314 314 312 309 305 301 297 295 295 294 294 293 293 292 292 292 292 292 292 292 292 294 296 299 300 300 300 299 299 299 299 298 296 294 292 289 288 288 288 287 287 287 287 287 286 286 286 285 285 285 285 285 285 285 285 285 285 285 284 284
310 310 310 310 311 310 310 310 310 310 310 311 311 311 311 311 311 311 311 311 311 312 312 312 313 312 311 309 306 303 299 296 295 294 294 293 293 293 292 292 292 292 292 292 292 292 294 298 300 300 300 299 299 299 299 299 297 296 294 292 289 288 287 287 287 287 287 287 286 286 286 285 285 285 285 285 285 285 285 285 285 285 284 284 284
310 310 310 310 310 310 310 310 310 309 309 310 310 310 310 310 310 311 311 311 311 311 311 312 311 310 308 305 304 301 298 295 294 294 293 293 292 292 292 292 292 292 291 291 291 292 295 299 300 300 299 299 299 299 299 298 297 296 295 291 288 287 287 287 287 287 287 286 286 286 285 285 285 285 284 284 285 285 285 285 285 285 284 284 283
310 309 310 310 310 310 310 309 309 309 309 309 309 309 309 309 309 310 310 310 310 310 310 310 309 308 306 304 303 301 298 295 294 293 293 292 292 292 292 291 291 291 290 290 291 293 297 299 300 299 299 299 298 298 298 298 298 297 294 290 287 287 287 287 287 287 286 286 286 285 285 285 285 284 284 284 284 284 285 285 285 284 284 284 283
309 309 309 309 309 309 309 309 309 309 309 309 309 308 309 308 308 308 309 309 309 309 309 309 309 307 305 304 303 300 298 295 294 293 292 292 292 291 291 291 291 290 290 290 291 295 298 299 299 299 299 298 298 298 298 298 298 296 292 288 287 287 287 287 287 286 286 286 286 285 285 284 284 284 284 284 284 284 284 285 285 284 284 284 283
309 309 309 309 309 309 309 309 309 309 309 309 308 308 308 308 308 308 308 308 308 308 308 308 308 307 305 304 303 300 297 295 293 293 292 292 291 291 290 290 290 290 289 289 291 296 299 299 298 298 298 298 298 298 297 298 297 294 290 288 287 287 287 287 287 286 286 286 285 285 285 284 284 284 284 284 284 284 284 284 284 284 284 284 283
309 309 309 309 309 309 309 309 309 309 308 308 308 308 308 307 307 307 307 307 306 306 306 307 307 306 304 303 302 299 297 294 293 293 292 292 291 290 290 290 290 289 289 289 292 297 299 299 298 298 297 297 297 297 297 297 296 293 289 288 287 287 287 287 286 286 286 285 285 285 284 284 284 284 284 284 284 284 284 284 284 284 284 284 283
309 309 309 309 308 308 308 308 308 308 308 308 308 308 307 307 307 307 307 306 306 305 305 306 306 305 304 302 301 299 296 294 293 293 292 292 291 291 290 290 289 289 289 289 293 298 299 298 298 297 297 297 297 297 297 297 296 293 290 288 287 286 286 286 286 286 286 285 285 284 284 284 284 284 284 284 284 284 284 284 284 284 284 283 283
309 309 308 308 308 308 308 308 308 308 308 307 307 307 307 307 306 306 306 305 305 304 304 304 304 304 304 303 301 299 297 295 294 293 293 292 292 291 291 290 289 290 289 289 293 298 299 298 298 297 297 296 296 296 296 296 296 294 290 287 286 286 286 286 286 286 286 285 285 284 284 284 284 284 284 283 284 284 284 284 284 284 283 283 283
308 308 308 308 308 308 308 308 307 307 307 307 307 307 306 306 306 305 305 304 303 303 302 302 302 301 301 301 300 299 298 297 296 294 292 292 291 291 290 290 290 290 289 289 293 297 299 298 298 297 297 296 295 295 295 295 295 293 289 287 286 286 286 286 286 286 285 285 285 284 284 283 283 283 283 283 283 283 284 284 284 283 283 283 283
308 308 308 308 307 307 307 307 307 307 307 306 306 306 305 305 305 305 304 303 303 302 302 301 300 299 298 298 298 297 297 296 295 293 291 291 290 290 290 289 289 289 289 289 291 296 298 298 298 297 296 295 294 294 293 293 293 291 288 286 286 286 286 286 286 286 285 285 285 284 284 283 283 283 283 283 283 283 283 283 283 283 283 283 283
308 307 307 307 307 307 307 307 307 306 306 306 306 305 305 304 304 304 303 303 302 302 301 300 300 298 297 297 296 295 294 293 293 292 291 290 290 289 289 289 288 288 288 288 289 294 298 298 297 297 296 294 293 293 292 291 291 288 286 285 286 286 285 286 286 286 285 285 285 284 283 283 283 283 283 283 283 283 283 283 283 283 282 282 282
307 307 307 307 307 307 307 306 306 306 306 305 305 305 304 304 303 302 302 302 302 301 301 300 299 298 297 296 295 294 293 292 292 291 290 289 289 288 288 288 287 287 287 287 288 292 296 298 297 296 295 294 293 292 291 290 289 287 285 285 285 285 285 285 285 285 285 285 284 284 283 283 282 282 282 282 282 282 282 283 283 282 282 282 282
306 306 306 306 306 306 306 306 305 305 305 305 305 304 304 304 303 302 302 301 301 301 301 300 300 299 297 296 295 294 293 292 290 290 289 289 288 287 287 287 287 286 286 287 287 289 293 295 296 295 295 294 293 292 291 289 287 285 285 285 285 285 285 285 285 285 284 284 284 283 283 282 282 282 282 282 282 282 282 282 282 282 282 282 282
304 304 304 304 304 304 304 304 304 304 304 304 304 304 303 303 303 303 302 302 302 301 301 300 299 299 298 296 295 294 293 291 290 289 288 288 288 287 286 286 286 285 286 286 286 286 288 291 293 294 294 294 293 291 290 288 286 285 284 284 284 284 284 284 284 284 284 284 283 283 282 282 282 282 282 281 281 281 281 282 282 282 282 282 282
303 303 303 303 302 302 302 302 302 302 302 302 302 302 302 302 302 302 302 302 302 301 301 300 299 298 298 297 295 294 292 291 289 289 288 287 287 286 286 285 285 285 285 285 286 286 286 287 289 291 292 292 291 290 289 287 285 284 284 284 284 284 284 284 284 284 283 283 283 282 282 281 281 281 281 281 281 281 281 281 281 281 281 281 281
300 300 300 300 299 299 299 300 300 300 300 300 300 301 301 301 301 300 300 300 300 300 300 300 300 299 297 297 296 295 293 291 290 289 288 288 287 286 286 286 286 286 286 286 286 286 286 286 286 287 289 289 289 288 287 286 285 284 283 283 283 283 283 283 283 283 283 283 282 282 281 281 281 281 281 281 281 280 280 280 280 280 280 281 281
296 296 296 296 296 296 296 296 296 296 296 297 297 297 298 298 298 299 299 299 299 299 299 299 299 299 298 297 297 295 294 293 291 290 289 288 287 286 286 286 286 286 286 286 285 285 285 285 285 285 286 287 286 286 286 285 284 283 283 283 283 283 283 283 283 283 283 282 282 282 281 281 280 280 280 280 280 280 280 280 279 279 280 280 280
294 294 294 294 294 294 294 293 293 293 294 294 294 294 294 294 295 295 295 296 296 296 296 297 297 297 298 297 297 296 294 293 292 291 290 289 288 287 287 286 285 285 285 285 285 285 285 285 285 284 285 285 285 285 285 284 283 283 282 282 282 282 282 283 283 283 282 282 282 281 281 280 280 280 280 280 280 280 279 279 279 279 279 279 279
292 292 292 292 292 291 291 291 291 291 291 291 291 291 291 291 291 291 291 291 292 292 292 293 293 294 294 295 295 295 294 293 292 291 290 289 288 288 287 286 286 286 286 286 285 285 285 285 285 284 284 284 284 284 284 283 283 282 282 282 282 282 282 282 283 283 282 282 281 281 280 280 279 279 279 279 279 279 279 279 278 278 278 278 278
290 290 290 290 290 290 289 289 289 289 289 289 289 289 289 289 289 289 289 289 289 289 289 289 289 290 290 291 292 292 293 292 292 291 290 290 289 288 287 286 286 286 285 285 284 284 284 284 284 284 284 284 283 283 283 282 282 282 282 282 281 281 282 282 282 282 281 281 281 280 279 279 279 279 279 279 279 279 278 278 278 278 278 278 278
289 289 289 288 288 288 288 288 288 288 288 288 288 288 288 288 288 288 288 288 288 288 288 288 288 288 288 288 288 289 290 291 291 291 291 290 289 288 287 286 285 285 284 284 283 283 283 283 283 283 283 283 283 282 282 281 281 281 281 281 281 281 281 282 282 281 281 281 280 279 278 278 278 278 278 278 278 278 278 277 277 277 277 277 277
288 288 288 288 288 288 288 288 288 288 287 287 287 287 287 287 287 287 287 287 287 287 287 287 287 287 287 287 287 287 288 288 289 289 289 289 289 288 287 286 285 285 284 283 282 282 281 282 282 282 282 282 282 281 281 281 281 281 281 281 281 281 281 282 281 281 281 280 279 278 278 277 277 277 277 277 276 276 276 276 276 276 277 277 276
288 288 287 287 287 287 287 287 287 287 287 287 287 287 287 287 287 287 287 287 287 287 286 287 286 286 286 286 286 286 286 287 287 287 287 288 288 288 288 288 287 286 285 284 283 281 281 281 281 281 281 281 281 281 280 280 280 280 280 280 280 281 281 281 281 280 280 279 278 277 277 276 276 276 275 275 275 275 275 275 275 275 275 275 275
287 287 287 287 287 287 287 287 287 287 287 287 287 287 287 287 286 286 286 286 286 286 286 286 286 286 286 286 286 286 286 286 286 286 286 286 286 287 287 287 287 286 286 285 284 282 281 281 280 280 280 280 280 280 280 280 279 279 279 280 280 280 281 281 280 280 279 278 277 276 276 275 275 275 275 274 274 274 274 274 274 274 274 274 274
287 287 287 287 287 287 287 287 286 286 286 286 286 286 286 286 286 286 286 286 286 286 286 286 286 286 286 286 286 286 286 286 285 285 285 285 286 286 286 286 286 286 286 286 285 284 283 282 280 280 280 280 279 279 279 279 279 279 279 279 279 280 280 280 279 279 278 277 276 276 275 275 275 274 274 274 274 274 274 273 273 273 273 273 273
286 286 286 286 286 286 286 286 286 286 286 286 286 286 286 286 286 285 285 285 285 285 285 285 285 285 285 285 285 285 285 285 285 285 285 285 285 285 285 285 285 286 286 285 285 285 284 283 281 280 280 279 279 279 278 278 278 278 278 279 279 279 279 279 278 278 277 276 275 275 275 275 274 274 274 274 273 273 273 273 273 273 273 273 273
286 286 286 285 285 285 285 285 285 285 285 285 285 285 285 285 285 285 285 285 285 285 285 285 285 285 285 285 285 285 285 285 285 285 285 285 285 284 284 284 285 285 285 285 285 285 284 283 282 281 280 279 279 278 278 278 278 278 278 278 278 278 278 278 278 277 276 275 275 275 275 274 274 274 274 273 273 273 273 273 273 273 272 272 272
285 285 285 285 285 285 285 285 285 284 284 284 284 284 284 284 284 284 284 284 284 284 284 284 284 284 284 284 284 284 284 284 284 284 284 284 284 284 284 284 284 284 284 284 284 284 284 283 282 281 279 279 278 278 278 278 277 277 277 277 278 278 278 278 277 276 275 275 275 275 274 274 274 274 273 273 273 273 273 273 272 272 272 272 272
285 285 284 284 284 284 284 284 284 284 284 284 284 284 284 284 284 284 284 284 284 284 283 283 283 283 283 283 284 284 284 284 284 284 284 284 284 283 283 283 283 283 283 283 283 283 283 282 281 280 279 278 278 277 277 277 277 277 277 277 277 277 277 277 276 275 275 275 275 274 274 274 273 273 273 273 273 273 273 272 272 272 272 272 271
284 284 284 284 284 284 284 284 284 283 283 283 283 283 283 283 283 283 283 283 283 283 283 283 283 283 283 283 283 283 283 283 283 283 283 283 283 282 282 282 281 281 282 282 282 282 282 281 281 279 278 277 277 277 277 277 277 276 276 276 277 277 276 276 275 275 275 275 274 274 274 273 273 273 273 273 273 272 272 272 272 272 272 271 271
283 283 283 283 283 283 283 283 283 283 283 283 283 283 283 283 283 283 282 282 282 282 282 282 282 282 282 282 282 282 282 282 282 282 282 282 282 281 281 280 280 280 280 280 281 281 280 280 279 278 277 277 276 277 277 277 276 276 276 276 276 276 276 275 275 275 275 274 274 274 273 273 273 273 273 273 272 272 272 272 272 272 272 271 271
Wind_Speed
46 45 43 41 40 39 37 37 37 38 39 40 40 40 39 38 36 34 34 35 34 33 33 31 32 35 32 28 26 24 26 28 26 26 29 32 30 28 27 25 24 22 20 18 16 14 12 10 9 7 6 5 5 5 7 8 9 11 12 14 15 17 18 19 21 24 23 23 25 26 27 29 30 31 32 33 34 35 35 36 36 37 38 38 36
42 42 41 40 39 37 36 36 36 36 38 39 39 39 39 37 36 34 34 34 33 33 33 31 32 35 32 28 26 24 26 30 29 28 32 33 31 29 27 26 24 22 20 18 16 14 12 11 9 8 6 5 5 6 7 8 9 11 12 14 16 17 18 19 21 24 25 24 25 26 27 29 30 31 32 33 34 35 35 35 36 37 37 36 36
37 37 38 38 38 38 38 37 36 36 37 37 38 38 38 38 36 35 34 33 32 32 31 30 34 36 32 29 26 23 26 29 29 30 35 34 32 30 27 26 24 22 20 18 16 14 13 11 10 8 6 5 6 6 7 8 9 11 12 14 16 16 18 19 21 23 25 25 25 26 27 29 30 31 32 33 33 34 35 35 36 36 36 35 35
32 33 34 36 36 36 37 36 36 37 37 37 37 37 38 38 36 35 34 32 31 31 30 31 35 35 32 31 28 25 27 29 29 32 36 34 31 29 27 26 24 22 20 18 16 15 13 11 10 8 7 6 6 6 7 8 9 11 13 14 15 16 17 19 21 22 24 26 26 26 27 29 30 31 32 33 33 33 34 34 36 36 35 34 33
27 28 29 30 31 31 32 33 34 35 35 36 36 36 37 36 35 35 33 32 31 30 29 31 34 35 34 33 29 27 28 29 29 34 36 33 31 29 27 26 24 22 21 18 16 15 13 11 10 8 7 7 7 7 7 8 9 11 13 14 15 16 18 19 21 22 24 26 26 26 27 28 29 30 31 32 33 33 33 33 35 36 35 33 32
23 24 25 26 27 28 30 31 32 32 32 33 33 34 35 34 34 33 32 31 31 31 31 30 31 35 35 30 26 25 26 26 30 35 35 33 31 29 28 27 25 23 21 19 17 15 13 12 10 9 8 8 7 7 7 8 10 11 13 14 15 17 18 19 21 22 23 25 26 26 27 28 29 29 30 32 33 34 34 34 35 36 36 34 32
22 23 25 26 27 28 29 30 31 31 31 31 31 32 32 32 32 30 30 29 29 32 34 29 28 34 33 27 25 25 24 26 31 35 34 33 31 30 29 27 25 23 21 19 18 16 14 12 11 10 9 8 7 6 7 8 10 12 13 14 16 17 19 20 21 22 23 24 25 26 26 27 28 29 30 31 31 33 34 36 36 36 36 34 33
23 24 25 26 26 27 28 29 30 31 31 31 31 31 31 31 30 29 28 28 28 31 32 25 24 32 33 29 29 27 24 27 32 35 35 33 32 31 30 28 25 23 21 20 18 16 14 13 12 11 9 8 6 6 6 8 10 12 13 15 16 18 19 20 21 22 23 24 24 25 26 26 27 29 30 31 31 32 33 35 36 37 36 34 33
22 23 24 24 24 25 26 27 29 30 31 31 31 31 31 30 29 28 28 28 27 31 32 27 27 31 31 30 30 25 23 27 34 36 36 33 32 32 30 28 26 23 22 20 18 17 15 14 12 11 9 7 6 5 6 8 10 12 14 15 17 18 19 20 21 22 23 23 24 25 25 26 27 28 30 30 31 32 33 34 35 35 36 34 32
20 20 21 21 21 22 23 25 26 27 28 29 29 30 30 29 29 28 28 29 29 33 36 34 32 32 30 30 29 23 22 29 35 36 35 33 32 32 30 28 26 24 22 21 19 18 16 15 13 11 9 7 6 5 6 8 10 12 14 16 17 18 19 20 21 22 23 23 24 24 25 26 26 27 29 30 30 31 32 33 34 34 34 35 34
18 18 18 18 19 20 21 22 23 24 24 25 25 26 26 26 27 27 28 29 31 33 35 33 33 33 31 31 30 27 25 31 36 35 34 32 32 31 30 28 26 24 23 21 20 19 17 15 14 12 10 7 6 6 6 8 10 12 14 16 17 18 19 20 21 21 22 23 23 24 25 25 26 26 28 29 30 30 31 31 32 33 33 34 35
18 17 16 16 17 17 18 19 20 20 20 20 18 19 21 22 23 24 26 28 28 30 32 34 34 33 30 27 27 26 28 34 37 35 34 33 32 30 29 28 26 25 24 22 21 19 18 16 14 12 10 8 7 6 7 8 10 12 14 16 17 18 19 20 21 21 22 22 22 22 23 25 25 26 27 28 29 29 30 30 30 30 31 31 34
18 17 16 15 15 16 17 18 17 16 17 18 17 16 18 21 23 24 26 26 25 26 30 34 35 31 27 24 23 24 30 36 37 35 34 33 32 31 29 27 26 25 24 23 22 20 18 16 15 13 11 9 8 7 8 9 10 12 14 16 17 17 19 19 20 21 21 22 22 22 22 24 25 25 26 27 28 29 29 29 28 28 29 29 31
18 17 16 16 15 15 16 16 16 15 16 19 20 19 20 21 22 24 24 25 24 23 25 31 34 29 25 22 22 25 31 36 37 36 35 34 33 32 30 28 27 26 25 24 23 21 18 17 15 14 12 10 9 8 9 9 11 12 14 16 18 18 19 19 19 20 20 21 21 21 22 23 24 24 24 25 26 27 28 28 28 28 28 29 29
19 18 18 16 16 15 15 16 16 16 16 18 20 21 22 23 22 22 23 24 25 24 25 29 31 28 25 23 23 26 32 37 37 36 36 35 34 33 31 30 28 27 26 25 23 21 19 17 17 15 12 10 9 10 10 10 11 13 15 17 18 19 19 19 20 20 20 20 20 21 21 22 23 23 24 24 25 26 26 26 26 26 27 28 28
20 19 19 17 16 15 15 16 17 17 18 20 21 22 23 24 24 24 24 24 26 27 27 29 29 28 26 25 26 29 34 38 38 37 36 36 35 34 32 31 30 29 28 26 23 21 20 19 18 15 13 11 11 11 11 11 12 13 15 17 18 19 20 20 20 20 20 19 20 21 21 22 22 23 23 24 24 25 26 25 24 25 26 28 28
20 19 19 18 17 16 16 17 17 18 19 21 22 23 22 23 24 24 24 25 26 28 28 28 28 28 27 27 29 32 36 39 38 37 37 37 36 35 33 33 31 30 28 26 24 22 21 21 19 16 13 12 12 12 12 12 13 14 16 18 18 19 20 20 19 19 20 20 20 21 21 21 22 22 22 22 23 23 24 24 24 25 26 27 28
20 20 19 19 18 17 16 16 17 19 19 20 23 24 24 24 24 24 25 26 27 28 29 29 30 29 29 29 31 34 37 38 38 38 37 37 36 35 34 33 32 30 28 27 25 24 23 22 20 16 14 13 14 13 13 13 14 15 17 18 19 19 20 20 19 19 20 20 20 20 21 21 21 21 21 21 21 22 22 23 23 24 25 26 26
20 20 19 19 19 18 16 16 17 18 19 20 22 23 23 24 25 26 27 28 29 31 32 33 33 32 31 30 32 35 37 38 38 38 37 37 37 36 35 33 32 31 29 28 27 26 25 23 20 17 15 14 15 14 14 15 15 16 18 19 19 20 21 21 20 20 20 20 20 20 20 21 21 21 20 20 20 20 20 21 21 22 24 24 24
19 19 19 19 18 17 16 16 16 16 17 19 22 24 25 25 26 28 30 31 33 34 34 34 33 31 30 31 34 36 38 38 38 38 38 38 37 36 34 33 32 32 31 30 29 28 26 24 20 17 15 15 15 15 15 17 17 18 19 19 20 20 21 21 21 21 21 20 20 20 20 20 20 20 20 19 19 19 18 19 20 21 22 23 22
17 18 17 17 16 16 16 16 15 15 15 17 20 23 25 27 29 30 31 32 33 33 31 30 28 28 30 33 36 38 39 39 38 38 37 37 36 35 34 33 33 33 32 31 30 29 27 24 19 16 16 16 16 16 17 18 19 20 20 20 20 21 22 23 22 22 21 21 21 21 21 20 20 20 20 19 19 19 18 18 19 19 20 21 21
16 17 17 16 16 15 16 16 15 15 15 16 18 19 21 23 24 25 27 27 28 28 27 27 27 29 32 35 38 39 40 39 38 37 36 36 36 35 35 34 34 33 32 31 30 30 27 23 18 17 17 16 16 17 18 20 21 22 21 20 21 22 23 24 23 22 21 21 22 21 21 21 20 20 20 20 19 19 18 17 18 18 18 18 19
15 15 15 15 14 14 14 14 14 14 14 15 16 17 18 18 19 20 21 22 23 25 25 26 28 31 33 36 38 39 39 38 37 37 36 36 36 36 36 35 35 34 33 32 31 29 26 21 18 17 17 17 17 18 20 22 24 24 22 21 22 23 24 24 24 22 22 22 22 22 21 21 21 21 20 20 19 18 17 17 17 18 18 17 16
12 11 11 11 11 11 11 12 12 13 13 14 15 16 17 17 18 19 20 21 22 24 25 27 29 32 34 36 38 39 40 40 39 38 38 37 37 37 37 37 36 34 33 32 31 29 25 22 19 19 18 19 19 20 22 24 25 25 22 21 23 24 24 25 24 23 22 22 23 22 21 20 21 21 21 20 19 17 16 16 17 17 17 17 15
8 8 8 8 8 8 8 9 10 11 12 13 14 15 16 17 18 19 19 21 23 24 26 27 30 32 34 37 39 40 41 41 40 39 38 38 38 38 38 38 36 35 34 33 32 29 26 23 22 21 21 21 21 22 23 25 26 25 22 23 24 25 25 24 24 23 23 23 23 22 21 21 21 22 21 20 20 18 16 15 16 17 17 16 15
8 7 7 6 6 6 6 7 8 9 10 11 12 14 15 16 17 18 19 21 22 24 26 28 29 32 35 37 39 41 41 41 40 39 39 39 40 40 40 38 37 36 35 34 32 31 28 26 25 24 23 22 22 23 24 26 27 26 24 25 26 25 25 24 24 23 23 23 23 22 21 21 21 22 21 21 20 18 16 15 15 16 16 16 15
8 7 7 6 5 5 5 6 6 7 8 10 11 12 13 15 16 17 18 20 21 22 24 27 29 31 33 36 38 39 40 40 40 39 39 41 42 42 41 40 39 38 37 36 36 34 32 30 27 26 25 24 23 23 25 27 28 27 26 27 27 26 25 25 24 24 23 23 22 22 22 22 22 21 21 20 20 19 17 16 15 15 15 14 14
7 7 6 5 5 5 6 6 7 7 8 9 10 11 12 13 15 16 16 17 18 19 21 23 25 28 30 33 36 38 39 41 40 39 40 41 42 43 42 42 41 41 41 40 40 38 34 31 29 28 28 27 26 26 26 28 29 30 29 28 28 27 26 25 24 24 23 23 22 22 22 22 22 22 21 20 19 18 17 17 16 15 15 14 13
8 7 7 7 7 7 7 8 8 8 9 10 10 11 11 12 13 14 14 15 17 18 19 21 22 24 27 30 33 36 38 39 38 38 39 41 42 42 43 43 43 43 43 42 41 38 35 32 31 31 31 30 30 29 29 30 31 31 30 29 29 28 27 25 24 24 23 22 22 23 23 22 22 22 21 21 20 18 17 17 16 15 15 14 13
9 8 8 8 8 9 9 9 9 10 10 10 11 11 11 11 13 14 14 15 17 18 19 20 21 23 25 28 30 33 36 36 36 37 40 41 42 43 43 43 43 44 44 44 42 39 36 35 35 35 34 33 33 32 32 32 32 32 31 31 30 29 27 26 25 24 23 23 23 23 23 22 22 22 21 21 19 18 17 17 16 15 15 14 14
9 10 9 9 10 10 9 10 10 10 10 11 11 11 11 12 12 13 14 14 16 17 19 20 21 22 24 26 28 30 33 35 36 37 39 40 41 42 43 44 44 44 45 45 43 41 40 39 39 38 37 36 35 34 32 33 33 33 32 32 31 30 28 26 25 24 23 23 24 24 23 23 22 22 21 20 19 18 18 17 17 16 15 15 14
9 9 9 9 10 10 10 11 11 11 11 12 12 12 12 12 12 13 14 15 15 17 18 20 21 22 23 25 27 29 31 33 35 36 37 39 40 41 42 43 44 45 45 46 45 44 44 43 43 42 40 38 37 34 32 33 34 34 33 33 32 31 29 27 25 24 23 24 24 24 24 23 23 22 21 20 19 18 18 17 17 16 16 15 14
7 8 8 9 10 10 11 11 12 12 12 13 13 13 13 13 13 13 14 16 17 17 19 20 21 22 23 24 26 28 29 31 34 35 37 38 39 40 40 42 44 45 46 48 48 49 49 48 47 45 43 40 38 35 33 33 34 34 35 34 33 32 29 27 25 24 24 24 24 24 24 23 23 22 21 20 19 19 18 18 17 17 17 16 15
5 5 6 7 8 9 9 10 11 11 11 12 12 13 13 13 14 15 16 17 18 18 19 20 21 22 23 24 25 26 28 30 32 34 36 37 38 39 39 40 42 44 47 50 52 52 52 52 50 49 46 43 39 35 34 34 35 35 36 35 34 33 30 27 26 25 24 24 24 25 24 24 24 23 21 20 19 19 18 18 18 17 17 16 16
3 4 5 5 6 7 7 8 8 9 10 10 11 12 12 13 14 16 17 18 18 19 20 20 21 22 23 24 25 25 27 29 31 33 35 36 37 37 38 40 43 45 48 52 54 54 54 54 54 53 49 44 39 35 34 35 36 37 37 36 35 33 30 28 26 25 25 25 25 25 25 24 24 23 21 20 20 19 18 18 18 17 17 17 16
3 4 4 5 5 6 6 7 7 8 9 10 10 11 13 13 14 16 17 18 19 19 20 21 21 21 22 24 25 26 27 28 29 30 32 34 35 36 39 43 46 48 49 52 53 54 54 55 55 54 50 45 40 37 36 37 37 37 37 37 35 33 30 28 26 25 25 26 26 25 25 25 24 23 22 21 20 19 18 17 17 17 16 16 16
3 4 4 5 5 6 6 7 8 8 9 10 11 12 13 13 14 16 16 17 18 19 20 21 22 22 22 23 23 24 26 27 28 29 30 31 33 36 40 43 45 47 48 50 51 51 52 52 53 52 49 45 41 39 38 39 39 38 37 36 35 33 31 28 27 26 26 27 26 26 25 25 24 23 22 21 19 18 18 17 17 16 16 15 15
4 4 5 6 6 7 8 8 9 9 10 11 11 12 13 13 14 15 15 16 17 18 19 20 21 21 22 22 22 23 24 25 27 29 30 31 33 36 39 42 43 45 47 48 48 49 49 50 50 49 48 46 43 40 39 39 39 38 38 37 35 33 31 29 28 28 28 27 27 26 26 25 24 23 21 20 19 18 17 17 16 16 15 15 15
6 6 7 7 7 8 8 9 9 10 10 11 11 12 12 13 13 14 15 16 16 17 18 18 19 19 19 20 22 22 24 25 27 28 30 31 33 35 36 38 41 42 43 44 45 46 47 47 47 46 45 44 42 39 38 38 39 38 38 37 36 34 32 31 30 29 28 27 26 26 25 25 24 22 21 20 18 17 17 16 16 16 15 15 15
6 6 7 7 8 8 9 9 10 10 10 11 12 12 13 14 15 15 16 17 17 18 18 18 19 19 19 19 21 22 24 25 27 28 29 30 32 33 34 36 38 39 39 40 41 42 43 44 44 43 42 41 40 39 38 38 39 38 38 37 36 35 33 31 31 30 28 27 26 26 25 24 23 22 20 19 18 17 16 16 16 16 15 15 15
5 6 6 7 8 8 9 10 11 12 12 13 14 15 16 16 17 18 18 19 20 20 21 21 21 20 20 21 21 22 24 26 26 28 29 31 32 33 34 35 37 38 38 38 39 40 41 41 41 41 40 39 38 37 37 38 39 38 38 37 37 35 34 33 31 30 28 27 26 25 25 24 22 21 20 18 17 17 16 16 16 15 15 15 15
7 7 8 9 9 10 11 12 13 14 15 16 16 17 18 18 19 20 21 21 22 22 23 23 23 23 23 24 24 25 26 27 28 29 30 31 32 33 34 35 37 38 38 38 38 39 40 40 40 39 38 37 35 35 35 37 39 39 38 38 37 36 35 33 31 30 28 27 26 25 24 23 22 20 19 18 17 17 16 16 15 15 15 14 14
9 10 11 12 12 13 14 14 15 16 17 18 18 19 20 20 21 21 22 22 23 24 24 25 25 25 25 26 26 27 28 29 30 31 31 32 33 34 34 35 36 37 38 38 38 38 39 40 40 39 37 36 34 33 33 35 38 39 39 38 37 36 35 33 31 30 28 27 26 25 24 23 21 20 19 18 17 17 17 16 16 15 15 14 14
11 12 13 13 14 15 16 17 17 18 19 19 20 21 21 22 22 23 24 24 25 25 26 27 27 27 28 28 29 29 30 31 32 32 33 33 34 34 35 35 36 36 37 38 38 39 39 40 40 38 37 36 35 34 33 34 37 39 39 38 37 36 34 33 31 30 28 27 26 25 24 23 22 21 20 19 18 18 17 17 17 16 15 15 15
12 13 14 15 16 17 18 19 19 20 21 21 22 23 24 24 25 26 26 27 28 28 29 29 30 30 30 31 31 32 32 33 34 34 35 35 36 36 36 36 36 35 36 37 38 38 38 39 39 38 38 37 36 35 34 34 36 38 39 38 36 35 34 32 30 29 27 27 26 25 24 23 22 21 20 20 19 18 18 17 17 16 16 15 15
14 15 16 17 18 19 20 21 22 23 23 24 25 26 26 27 28 28 29 30 30 30 31 31 32 32 33 33 33 33 34 34 35 35 36 36 37 37 37 38 38 37 36 37 38 38 38 38 38 38 38 37 37 36 35 34 35 37 38 38 36 35 33 32 30 30 29 28 27 25 24 24 23 22 21 20 19 18 17 17 16 16 15 15 15
17 18 19 20 21 22 23 23 24 25 26 27 28 28 29 30 30 31 31 32 32 33 33 34 34 34 34 34 35 35 35 35 36 36 37 37 37 38 38 39 39 38 37 37 38 39 39 39 39 38 38 37 37 37 36 35 35 37 38 37 36 34 33 32 31 31 30 29 27 26 25 24 23 22 21 20 19 17 16 16 15 15 14 14 14
19 20 21 22 23 24 26 26 27 28 29 30 31 31 32 33 33 33 34 34 35 35 36 36 36 36 36 36 37 37 37 37 37 38 38 38 38 38 38 38 39 38 37 37 38 39 39 39 38 38 37 37 36 36 36 35 35 36 37 36 35 33 32 32 32 31 31 29 27 26 25 24 23 22 21 20 19 17 16 16 15 14 14 13 13
21 22 24 25 26 27 28 29 30 31 32 33 34 34 35 35 36 36 37 37 37 37 37 38 38 38 38 39 39 39 39 39 38 38 39 39 38 38 37 37 37 37 36 36 37 38 38 38 38 37 37 36 36 36 35 35 34 34 35 34 33 32 32 32 32 32 31 30 28 26 26 24 23 22 21 20 19 18 16 16 15 14 14 13 13
23 24 26 27 28 29 30 31 32 33 34 35 35 36 37 37 38 38 38 39 39 39 39 40 40 40 40 41 40 40 40 40 39 38 38 38 38 37 37 36 36 36 36 36 36 37 37 37 37 37 36 36 36 35 34 34 33 33 33 32 32 32 32 33 33 33 32 30 28 27 26 25 24 23 22 20 19 18 17 16 15 15 14 13 13
25 27 28 29 30 31 32 33 34 35 35 36 37 37 38 38 38 39 39 39 40 40 40 41 41 41 41 41 41 40 40 40 39 38 37 37 36 36 36 36 36 36 35 36 36 35 35 35 35 35 35 35 35 34 33 33 32 32 31 31 32 32 33 33 33 33 32 30 28 28 27 26 25 23 22 21 19 18 17 16 15 15 14 14 14
Wind_Direction
237 237 237 236 237 240 242 243 244 244 245 245 245 247 246 246 246 244 240 237 235 235 233 231 234 237 239 242 246 246 239 235 240 236 216 203 199 198 199 200 200 200 201 201 201 203 206 207 213 223 233 249 272 292 306 318 323 329 332 331 333 334 335 336 333 333 339 341 339 339 340 339 339 340 340 341 342 343 343 342 342 347 349 349 352
239 239 238 237 238 240 241 242 243 244 244 244 245 245 245 246 244 241 239 236 234 235 232 232 234 232 234 240 243 242 238 235 239 231 214 204 199 198 199 200 200 201 201 202 203 204 206 208 216 226 233 250 271 289 303 314 320 326 328 329 332 334 335 336 335 334 336 339 339 339 340 339 338 339 339 340 341 341 341 341 343 349 352 351 352
239 239 238 238 239 241 242 243 243 243 244 244 244 243 244 244 241 239 238 235 234 233 230 234 232 228 234 239 237 239 240 237 236 224 210 204 200 198 200 200 201 203 203 203 203 204 208 211 218 227 233 249 270 286 300 311 319 324 327 329 332 333 335 335 335 334 335 337 340 340 339 339 338 338 339 340 340 339 339 341 344 348 352 353 354
238 238 238 239 241 243 244 245 246 245 245 244 242 241 242 241 240 239 236 234 233 230 231 236 230 226 234 236 233 239 241 238 232 216 206 204 201 199 201 200 201 204 204 204 205 206 209 213 220 226 234 249 267 283 298 309 318 322 326 329 331 332 334 335 334 334 333 336 339 339 338 338 337 337 337 338 338 338 339 342 344 347 350 352 354
240 241 242 243 245 247 248 249 249 249 248 246 243 241 241 241 240 238 234 233 232 230 232 233 228 230 237 234 229 235 239 237 226 211 204 202 200 200 202 201 202 204 205 204 205 207 211 214 220 226 235 249 263 280 296 309 317 322 326 329 331 332 333 333 333 333 334 335 336 337 337 337 336 336 335 335 336 336 338 341 344 346 349 352 354
247 248 249 249 250 251 251 252 251 250 249 247 244 242 241 241 240 238 236 233 230 230 230 230 232 237 234 227 227 233 237 234 220 208 204 202 200 201 202 203 204 205 206 206 205 208 211 214 220 225 236 249 260 279 295 308 317 322 326 328 330 332 331 331 332 333 334 334 334 335 336 335 334 334 334 335 335 336 337 340 344 346 347 351 354
254 254 253 253 252 251 251 251 251 250 249 247 245 242 241 240 239 238 236 232 230 231 227 226 236 235 225 222 230 236 238 231 216 207 205 203 201 201 202 204 206 206 207 206 205 208 211 214 220 226 236 248 258 277 294 307 317 321 325 328 329 330 330 330 332 333 333 333 332 332 333 334 333 332 333 334 335 337 338 340 342 344 346 351 354
257 256 255 253 253 252 251 251 250 249 248 246 245 242 240 238 238 238 236 233 234 234 228 230 240 230 222 225 230 235 240 228 213 206 205 204 203 203 203 205 206 207 208 207 206 209 211 214 220 226 234 244 255 275 295 308 316 320 324 327 328 328 329 330 331 331 330 331 330 330 330 332 332 331 332 333 334 338 341 341 341 342 344 349 354
260 259 258 256 254 252 250 250 249 248 246 244 243 242 239 237 235 234 235 234 234 233 231 236 238 229 228 228 224 230 238 224 211 208 206 205 204 205 206 207 207 208 209 207 207 209 212 216 220 225 231 238 252 274 296 309 316 321 324 325 326 326 328 329 329 328 328 328 328 328 329 330 331 331 332 333 336 339 342 342 341 342 342 345 352
263 263 263 261 259 256 252 251 249 248 246 243 242 242 240 238 235 232 230 228 231 233 230 229 229 228 231 230 226 236 239 220 211 210 208 207 207 207 208 208 207 209 209 208 209 210 213 216 218 222 226 231 248 272 294 307 315 321 323 323 324 325 327 327 326 325 326 326 326 327 328 330 331 332 331 333 336 340 341 341 340 340 341 343 348
265 265 264 262 260 256 254 252 249 247 244 241 239 239 238 236 233 230 226 225 232 236 229 225 227 225 223 226 232 242 238 217 209 209 208 208 209 210 211 209 208 208 208 209 211 213 214 216 217 219 221 227 246 268 289 303 312 318 320 321 322 323 324 324 323 323 323 323 325 327 327 329 331 331 331 332 336 338 340 340 339 339 341 341 343
265 264 263 261 258 255 252 249 246 244 240 234 233 233 230 226 223 224 225 228 235 237 229 227 228 222 217 226 237 239 228 213 208 208 209 209 209 211 212 212 210 209 209 210 212 214 215 215 215 216 218 227 244 264 283 295 305 311 314 318 320 321 321 321 320 321 320 322 324 326 326 328 329 330 330 332 335 336 337 338 338 337 338 338 337
261 261 261 260 258 254 249 247 243 238 231 225 224 222 219 218 220 222 225 229 233 234 230 226 222 218 222 234 240 233 220 211 208 209 209 209 210 211 212 213 212 211 211 213 214 215 215 214 214 215 219 230 244 261 277 286 296 305 309 314 317 318 318 318 318 318 318 320 323 325 326 327 327 328 330 331 332 334 334 335 335 334 333 334 336
256 256 257 258 257 254 249 246 241 233 226 223 223 221 219 221 224 224 225 226 226 226 228 222 216 219 229 236 239 232 218 211 209 210 210 210 211 211 211 212 212 212 213 214 215 215 214 213 214 216 222 233 247 262 273 281 291 300 307 311 315 316 315 315 314 313 315 318 320 322 324 324 324 325 328 329 329 331 331 332 332 330 328 331 335
254 253 253 254 256 256 252 248 242 232 225 223 225 225 223 223 225 224 224 226 226 224 224 221 221 229 238 239 241 233 219 212 212 211 211 211 212 212 211 211 212 212 213 214 215 214 213 213 215 219 225 236 250 261 269 278 289 300 307 310 312 313 312 312 311 311 313 315 317 319 320 320 322 324 326 327 327 328 328 327 327 325 325 328 332
255 253 252 252 255 257 255 251 245 235 227 224 227 230 227 225 225 225 225 225 223 220 220 223 230 239 243 243 240 230 218 213 213 213 213 213 213 213 213 213 213 213 213 214 214 213 214 216 218 221 228 239 251 259 268 279 289 298 304 306 308 310 309 309 309 309 311 312 313 317 318 319 321 322 323 324 324 324 324 324 324 322 323 326 331
257 256 254 252 252 253 253 251 247 239 231 226 227 231 231 229 229 229 228 225 223 223 227 235 241 245 246 244 239 228 217 214 214 215 215 216 215 215 215 215 215 214 214 214 214 215 217 218 220 225 233 243 253 259 268 280 288 294 298 300 303 306 305 305 306 305 307 309 311 314 316 317 318 319 319 320 320 321 321 321 322 320 321 327 331
257 256 255 253 251 250 250 251 249 245 239 232 231 233 233 232 232 232 231 230 231 235 240 244 246 248 248 244 236 226 217 215 216 217 217 218 218 218 218 217 216 215 215 215 216 217 218 220 223 228 237 247 255 262 272 284 288 288 291 295 299 302 302 301 302 301 303 306 309 311 312 314 315 315 316 317 317 318 318 318 318 317 319 326 331
255 254 254 253 252 251 251 252 252 249 245 240 238 239 238 236 234 234 234 235 237 240 243 245 248 249 247 239 230 223 218 217 219 219 220 220 220 219 219 219 218 218 217 218 218 218 219 222 225 232 242 251 258 267 280 289 286 281 285 292 297 299 299 298 298 299 301 304 306 308 309 311 312 312 314 315 316 316 314 313 312 314 318 325 329
251 249 250 250 251 252 251 252 253 252 248 243 240 239 239 238 238 238 239 241 243 245 247 248 248 245 238 230 224 221 219 218 220 221 222 222 221 221 221 221 222 222 221 220 220 221 222 224 228 236 246 254 261 273 287 289 281 277 282 291 295 296 296 295 296 298 300 302 303 304 306 308 309 311 312 313 313 312 311 309 309 313 318 323 326
246 244 244 244 244 245 245 248 250 249 247 245 241 240 240 240 242 244 245 248 249 250 249 246 239 233 229 225 222 220 219 220 222 223 224 224 224 224 224 225 225 225 224 223 223 223 224 226 232 240 248 255 266 279 289 287 278 274 280 289 293 293 293 293 294 296 299 301 302 302 304 306 308 311 311 311 311 311 309 308 308 312 317 320 322
239 236 236 235 235 235 236 239 242 241 241 242 241 242 243 243 245 246 246 247 248 247 244 239 233 228 225 224 223 222 221 222 223 225 226 226 227 227 226 227 227 227 226 225 225 225 226 229 236 243 249 259 271 282 287 284 276 272 277 285 288 289 290 291 292 294 296 298 299 300 303 306 309 310 309 308 308 309 308 306 307 310 315 318 320
234 231 230 231 231 233 235 238 240 241 241 242 243 245 246 247 248 247 245 244 244 242 240 237 234 230 227 225 225 225 224 225 225 225 226 227 228 228 228 228 228 228 228 228 228 228 228 231 238 245 252 264 274 281 284 282 276 271 274 281 284 285 287 288 290 293 295 296 297 299 302 306 307 307 306 304 304 306 306 305 306 308 311 315 318
231 228 228 230 230 233 238 240 242 244 243 243 244 245 246 247 248 248 246 245 244 243 242 240 237 234 231 228 227 227 227 227 226 226 226 227 228 229 229 228 228 228 229 229 228 227 229 234 241 247 255 265 273 279 282 281 275 270 271 276 279 281 283 285 288 290 292 293 295 298 301 304 304 302 302 301 300 302 303 302 303 304 307 312 317
212 210 213 217 218 224 231 234 239 242 242 243 245 245 246 247 247 248 248 246 246 245 243 242 240 237 234 231 229 229 229 228 228 228 227 227 228 229 229 230 229 229 229 230 228 228 231 237 242 248 255 264 272 279 282 279 273 267 268 271 274 276 279 283 286 288 290 292 294 297 300 301 300 298 297 297 297 298 299 298 299 302 305 310 315
176 178 184 190 198 209 220 227 236 241 244 248 249 248 250 249 249 250 250 249 249 248 247 246 244 240 238 235 233 232 232 232 231 230 230 230 230 229 230 230 230 229 231 231 230 229 233 237 241 246 254 264 272 278 281 277 270 265 266 269 270 273 276 280 283 285 287 290 292 295 296 296 296 295 294 293 294 294 294 295 296 299 302 307 313
160 163 169 179 189 202 215 223 233 241 246 251 253 254 255 254 254 255 254 254 254 253 251 250 248 245 243 240 238 237 237 237 236 235 234 234 233 233 232 231 230 231 232 232 231 231 233 237 241 247 254 261 267 272 275 275 269 265 265 267 268 270 273 276 280 283 285 288 290 292 293 292 292 292 291 290 290 290 291 293 294 296 297 301 306
168 171 178 189 198 208 217 223 231 237 241 247 251 254 256 257 259 260 260 260 260 260 259 257 255 253 250 247 244 243 241 241 241 241 241 240 239 239 237 235 234 234 234 234 232 232 234 238 243 249 254 258 263 267 270 273 269 265 263 264 264 266 269 272 276 280 282 286 288 290 289 288 289 290 289 288 286 286 287 289 290 292 293 295 299
185 188 194 203 209 214 220 225 229 233 236 241 246 250 254 257 260 261 261 259 259 258 259 259 257 257 255 253 251 249 247 248 248 247 247 245 244 244 243 241 239 239 238 237 235 233 236 242 248 253 256 258 261 263 265 268 267 263 261 260 260 263 265 269 273 276 279 283 286 287 286 286 286 287 286 285 283 282 282 284 285 288 291 294 296
198 203 206 211 216 222 225 228 231 232 235 240 243 247 251 253 257 261 261 259 258 257 257 256 254 254 254 254 254 254 254 255 255 252 251 249 247 247 246 245 244 243 242 240 237 236 240 247 252 256 257 258 260 261 262 265 265 262 259 258 260 261 263 266 270 273 277 280 282 283 284 284 285 285 283 281 279 278 279 280 280 283 288 291 293
211 215 218 221 227 233 236 240 242 242 243 245 247 250 253 253 257 263 264 263 262 261 259 258 256 254 253 253 253 253 255 256 255 253 253 253 251 250 248 247 246 245 245 244 241 239 243 249 253 256 257 259 261 263 264 265 264 262 259 258 259 261 262 264 268 271 274 277 279 282 283 283 283 283 281 279 277 275 275 276 277 278 281 286 289
228 232 236 240 244 248 250 252 254 254 254 255 255 257 259 260 261 265 267 267 265 262 260 260 259 258 257 256 254 253 253 254 255 255 254 253 253 252 251 250 248 247 246 246 244 242 244 249 254 257 259 261 264 266 266 265 263 261 259 259 260 260 261 263 266 269 271 274 277 279 281 281 281 280 279 277 276 274 272 273 275 275 276 279 283
242 245 249 251 252 254 253 253 254 255 256 258 259 259 262 264 265 266 266 266 266 264 262 262 261 260 259 259 258 257 256 256 256 256 255 255 254 253 253 252 251 249 248 248 247 245 245 249 253 257 260 263 266 267 267 265 263 260 259 259 259 259 259 261 264 266 269 272 275 277 278 278 278 277 276 275 275 274 272 273 274 275 275 276 278
237 243 253 256 256 258 258 257 260 261 260 262 263 264 266 268 269 269 267 266 266 266 264 263 262 260 259 258 258 259 260 259 258 258 258 257 256 255 255 254 254 252 251 251 250 249 248 250 253 257 261 264 267 268 268 265 262 259 258 258 258 257 258 259 262 265 268 271 274 275 276 276 275 274 274 274 273 273 273 273 273 274 274 275 276
234 240 250 256 256 260 264 265 269 272 273 275 277 278 278 278 276 276 275 274 273 272 270 268 265 263 261 259 257 256 257 258 258 258 259 258 258 257 255 253 252 251 250 250 251 250 250 251 253 256 260 264 268 270 269 265 262 259 258 258 257 257 257 258 260 264 267 269 272 274 273 274 274 273 273 273 272 273 273 274 275 276 276 276 277
239 243 250 253 257 263 268 272 277 281 282 285 287 287 287 287 285 284 284 284 283 283 282 280 277 273 270 268 265 262 260 259 259 259 260 260 259 257 255 254 253 253 253 253 254 254 253 253 254 257 261 266 270 272 269 265 261 259 258 257 257 256 256 257 259 263 265 267 270 271 271 272 271 271 271 272 272 273 274 274 275 277 277 278 279
246 257 266 270 276 280 282 283 286 286 286 287 287 286 286 285 285 286 286 287 288 288 287 287 286 284 282 280 277 273 270 267 265 262 261 260 258 256 256 256 256 256 256 257 257 258 258 258 259 260 264 267 270 271 269 264 260 257 256 256 256 255 255 256 258 261 263 265 267 269 270 270 269 268 269 270 271 272 274 275 276 278 280 281 282
286 291 294 294 296 297 295 296 296 294 294 294 292 291 291 290 289 290 290 289 290 290 289 289 288 288 288 286 283 280 276 272 268 265 262 260 259 258 258 258 258 259 260 260 261 262 263 263 263 264 265 268 269 270 268 264 260 257 256 256 255 254 253 254 257 259 262 264 266 267 267 267 267 267 267 268 268 270 273 275 278 280 281 283 284
308 309 308 306 308 308 306 307 306 304 304 303 301 301 301 300 299 299 298 297 297 297 295 294 293 293 292 289 286 283 279 275 272 270 268 266 265 264 263 262 262 263 264 265 265 266 266 266 266 266 268 269 270 269 267 262 258 257 256 255 253 252 252 254 257 259 261 263 265 265 265 264 264 264 265 266 267 269 271 273 276 278 280 282 284
311 314 311 310 311 311 309 310 309 308 309 309 308 309 308 307 307 306 305 305 305 303 302 301 300 299 297 293 290 287 284 280 278 276 274 272 271 269 268 267 266 268 268 268 268 268 268 268 268 268 269 270 270 269 265 259 255 254 254 253 252 251 251 254 256 258 260 261 262 262 262 261 261 262 262 263 265 267 269 271 273 276 279 281 282
306 307 305 306 307 306 307 308 308 309 309 309 308 308 307 306 307 306 305 305 304 303 302 301 301 300 298 295 293 290 286 284 283 281 278 277 275 273 271 270 270 270 270 269 268 269 269 269 269 269 270 271 272 271 266 259 254 253 253 252 251 250 251 253 255 256 258 259 259 259 258 257 258 259 260 261 263 265 267 270 271 274 277 279 280
303 303 303 305 305 305 305 306 305 306 306 305 304 304 304 303 303 302 301 300 300 299 299 298 298 298 298 296 295 293 290 288 287 285 283 281 279 277 276 274 273 273 272 271 269 269 270 270 269 269 269 270 272 272 268 260 256 254 253 253 251 250 251 253 255 255 256 256 255 254 254 254 254 255 256 258 261 262 265 267 269 271 274 276 279
302 304 304 304 304 304 303 303 302 302 302 302 301 301 300 299 298 297 296 296 296 296 296 296 296 296 296 296 295 294 292 292 291 290 288 287 285 283 282 280 278 277 276 275 273 270 269 269 268 267 267 267 268 269 267 262 257 255 254 253 251 250 252 253 253 253 253 252 250 249 249 250 251 252 254 256 257 259 262 265 266 269 272 274 277
299 301 301 301 302 302 300 300 300 299 298 298 297 296 295 295 294 294 294 294 295 295 295 296 296 295 295 295 294 293 293 293 293 292 292 291 290 288 287 285 283 280 278 276 274 272 269 268 268 267 265 264 263 263 263 260 255 252 251 251 249 249 251 251 251 251 250 248 245 245 245 246 249 251 252 254 255 257 260 263 265 268 271 273 275
296 297 297 298 298 298 297 297 296 295 295 294 294 294 294 294 294 295 295 296 296 296 296 296 296 296 295 294 294 293 293 293 292 292 292 291 291 291 290 288 287 284 280 277 275 273 270 268 266 264 262 260 258 258 259 258 254 250 248 247 247 248 249 250 250 249 245 242 240 240 242 245 248 250 252 253 254 256 259 261 264 267 270 272 275
297 297 298 297 297 297 297 296 296 296 296 296 296 296 296 296 296 297 297 297 297 297 296 296 296 296 295 295 294 293 292 292 291 291 290 290 289 289 289 288 287 285 283 280 277 275 272 268 264 261 259 257 255 254 254 254 252 248 246 245 245 245 245 246 245 243 240 237 237 239 241 244 246 248 250 251 252 253 256 260 263 266 269 272 274
302 302 302 302 302 301 301 300 300 301 300 300 300 299 299 299 298 298 298 298 298 297 297 296 296 295 295 295 294 294 294 293 292 292 291 290 290 289 288 287 286 285 284 281 279 276 273 269 265 261 257 254 252 251 250 249 248 245 243 243 243 243 243 243 242 240 238 237 238 239 240 242 243 245 246 248 249 251 253 257 260 265 268 271 274
304 304 304 304 304 304 304 304 303 303 303 303 302 302 301 301 300 300 299 299 298 298 297 297 296 296 296 295 295 295 294 294 293 293 292 291 291 289 288 288 287 285 284 282 280 277 274 270 266 261 257 253 250 249 247 245 244 242 241 241 243 243 243 242 240 238 237 237 237 239 239 239 240 241 242 244 246 248 250 254 258 262 266 270 273
304 304 304 304 304 304 304 304 304 303 303 303 302 302 302 301 301 300 300 299 298 298 297 297 296 295 295 295 294 294 294 293 293 293 292 291 291 290 289 288 288 287 286 283 281 278 275 271 267 261 256 252 249 247 244 242 240 239 239 241 242 242 241 239 237 236 236 237 236 237 237 237 237 237 238 240 242 245 247 251 255 259 264 269 272
304 304 304 304 304 304 304 304 304 304 303 303 303 302 302 301 300 300 299 299 298 297 297 296 296 295 295 294 294 294 294 293 293 293 292 291 291 290 290 289 289 288 287 285 282 279 276 272 267 261 256 251 248 246 242 238 236 236 238 240 240 239 238 236 234 234 235 236 235 234 235 235 234 233 234 237 239 242 245 249 253 258 263 269 272
303 303 303 303 303 303 303 303 303 302 302 302 301 301 300 300 299 299 298 297 297 297 296 296 295 295 295 295 295 295 295 295 294 293 292 290 290 290 291 291 290 289 287 286 284 281 277 272 268 261 255 251 248 245 241 236 234 234 236 238 238 238 235 233 232 233 234 235 233 232 232 231 230 231 232 234 237 240 243 246 251 256 262 268 272